Location: Burland Observatory
(39.4088°N, 105.4217°W)
Time: 21:49:00
(UTC-07:00)

Vanguard 3 - Pass Details

Date: 13 December 2019
Orbit: 507 x 3264 km, 33.4° (Epoch: 27 January)

Event Time Altitude Azimuth Distance (km) Brightness Sun altitude
Rises 08:11:16 0° 251° (WSW) 3,617 10.2 8.4°
Reaches altitude 10° 08:13:24 10° 247° (WSW) 2,915 9.8 8.7°
Maximum altitude 08:20:36 60° 169° (S) 1,757 9.4 9.8°
Drops below altitude 10° 08:33:37 10° 95° (E) 5,082 12.2 11.6°
Sets 08:38:36 0° 93° (E) 6,484 12.6 12.3°
